Find GPS IIA-15

NORAD ID: 23027 Int'l Des: 1994-016 Owner: AFSMC Country: US Constellation: GPS operational
MEOCIRCULAR

当前视图

正在加载3D地球...

关于 GPS IIA-15

正在加载描述...

即将过境

Passes for default location (London). Set your location on the main map for personalized predictions.

高度历史

Loading altitude history...

两行轨道根数

1 23027U 94016A 26145.48626226 -.00000088 00000-0 00000+0 0 9994
2 23027 53.1285 274.8304 0034057 217.2945 149.8408 1.86674957232809
Epoch: May 25, 2026 • Age: 30 hours

当前状态

高度 21463.0 km
速度 3.79 km/s
星下点 30.37°N, 88.12°W
发射日期 Mar 10, 1994
运行时间 32.2 years
类型 navigation

技术详情

分类 Payload
质量 860.00 kg
干质量 860.00 kg
总质量 1881.00 kg
长度 2.40 m
直径 1.80 m
跨度 5.30 m
形状 Box + 2 Pan
制造商 RWISB
平台类型 GPS
阶段状态 In Orbit
所有者/国家 AFSMC/US

Most Searched